Date,TemperatureHighF,TemperatureAvgF,TemperatureLowF,DewpointHighF,DewpointAvgF,DewpointLowF,HumidityHigh,HumidityAvg,HumidityLow,PressureMaxIn,PressureMinIn,WindSpeedMaxMPH,WindSpeedAvgMPH,GustSpeedMaxMPH,PrecipitationSumIn
2013-4-1,62.7,52.4,41.3,52.0,42.8,31.0,98,74,37,30.15,29.96,13,3,20,0.01
2013-4-2,57.9,46.6,36.8,32.0,20.6,15.0,56,38,22,30.31,30.15,9,3,13,0.00
2013-4-3,56.6,47.2,37.7,22.0,18.5,16.0,42,32,24,30.37,30.27,10,4,24,0.00
2013-4-4,49.5,43.3,39.8,41.0,30.5,17.0,95,67,28,30.27,30.07,12,4,18,0.77
2013-4-5,64.7,52.0,39.6,43.0,36.6,31.0,96,62,30,30.18,30.06,8,2,12,0.00
2013-4-6,70.3,60.1,44.1,39.0,36.5,31.0,75,44,25,30.26,30.12,10,4,15,0.00
2013-4-7,71.7,64.6,55.5,45.0,40.1,34.0,52,41,33,30.21,30.09,20,8,28,0.00
2013-4-8,75.7,67.8,56.8,53.0,47.8,43.0,61,50,39,30.15,30.05,21,7,30,0.00
2013-4-9,81.0,71.3,60.7,56.0,52.9,50.0,69,53,40,30.22,30.06,18,6,25,0.00
2013-4-10,83.8,73.6,63.2,57.0,55.0,53.0,71,53,37,30.15,29.91,14,6,22,0.00
2013-4-11,73.0,23.3,67.5,56.0,-48.4,-99.9,64,20,55,29.93,29.67,8,-664,17,0.00
2013-4-12,-200.0,0.0,200.0,-99.9,-99.9,-99.9,0,0,100,30.00,29.60,0,-999,0,0.00
2013-4-13,-200.0,0.0,200.0,-99.9,-99.9,-99.9,0,0,100,30.12,30.00,0,-999,0,0.00
2013-4-14,-200.0,0.0,200.0,-99.9,-99.9,-99.9,0,0,100,30.11,30.00,0,-999,0,0.00
2013-4-15,-200.0,0.0,200.0,-99.9,-99.9,-99.9,0,0,100,30.15,29.98,0,-999,0,0.00
2013-4-16,82.5,57.3,59.1,63.0,24.6,-99.9,85,49,50,30.29,30.15,11,-216,20,0.00
2013-4-17,73.1,66.6,62.0,62.0,60.6,58.0,93,81,69,30.28,30.10,17,5,30,0.03
2013-4-18,81.2,70.8,59.8,62.0,57.2,51.0,96,66,35,30.10,29.86,21,6,33,0.00
2013-4-19,73.9,58.3,45.8,62.0,48.4,32.0,96,72,53,30.13,29.70,26,11,45,1.28
2013-4-20,62.8,50.4,38.2,36.0,28.8,24.0,75,47,24,30.37,30.14,11,3,15,0.00
2013-4-21,67.6,55.3,44.4,36.0,31.2,27.0,52,41,27,30.47,30.33,9,3,15,0.00
2013-4-22,69.2,60.0,48.9,43.0,38.0,34.0,64,46,32,30.40,30.21,10,3,14,0.00
2013-4-23,74.8,62.2,49.3,48.0,41.7,34.0,65,48,36,30.28,30.08,11,3,15,0.00
2013-4-24,70.8,59.5,45.7,60.0,50.3,40.0,93,73,56,30.29,30.03,27,7,35,0.14
2013-4-25,67.1,53.6,41.2,40.0,35.3,29.0,87,54,27,30.43,30.29,7,2,11,0.00
2013-4-26,69.6,57.5,46.9,45.0,35.3,29.0,69,45,29,30.48,30.36,9,2,17,0.00
2013-4-27,56.2,53.4,50.8,54.0,50.0,43.0,97,89,61,30.43,30.18,9,2,12,0.85
2013-4-28,58.1,54.9,52.1,57.0,54.1,51.0,98,97,92,30.20,30.01,24,4,26,1.72
2013-4-29,73.7,61.7,54.7,58.0,55.1,53.0,98,80,50,30.11,30.00,6,2,11,0.00
2013-4-30,81.9,68.6,55.1,58.0,53.5,50.0,94,62,34,30.13,30.02,8,2,10,0.00